QLK1988 YWLM-YBBN

Flight info

Callsign QLK1988
Flight time 0h 57m
Altitude 39000
Route WLM DCT UBSON DCT NICLA DCT BANDA H252 BN
Aircraft E190/M-SDE3GILORVW/S

Departure

Time 2026-04-25 11:05
Airport Newcastle Airport (YWLM)

Arrival

Time 2026-04-25 12:02
Airport Brisbane International Airport (YBBN)
Time Latitude Longitude Altitude Speed Heading
2026-04-25 10:48 -32.80407 151.84076 34 ft 0 kts 272°
2026-04-25 11:00 -32.80406 151.84074 34 ft 0 kts 291°
2026-04-25 11:01 -32.80403 151.84073 34 ft 0 kts 340°
2026-04-25 11:01 -32.80398 151.84076 34 ft 1 kts 26°
2026-04-25 11:01 -32.80386 151.84085 34 ft 2 kts 37°
2026-04-25 11:01 -32.80376 151.84103 34 ft 2 kts 82°
2026-04-25 11:02 -32.80386 151.84126 34 ft 3 kts 130°
2026-04-25 11:02 -32.80406 151.84152 34 ft 4 kts 131°
2026-04-25 11:02 -32.80429 151.84187 34 ft 6 kts 127°
2026-04-25 11:02 -32.80457 151.84230 34 ft 6 kts 122°
2026-04-25 11:03 -32.80463 151.84286 34 ft 7 kts 66°
2026-04-25 11:03 -32.80426 151.84332 34 ft 8 kts 39°
2026-04-25 11:03 -32.80381 151.84376 34 ft 8 kts 38°
2026-04-25 11:03 -32.80332 151.84422 34 ft 9 kts 38°
2026-04-25 11:04 -32.80299 151.84451 34 ft 5 kts 18°
2026-04-25 11:04 -32.80267 151.84428 34 ft 6 kts 306°
2026-04-25 11:04 -32.80143 151.84253 34 ft 70 kts 309°
2026-04-25 11:04 -32.79836 151.83826 34 ft 129 kts 310°
2026-04-25 11:05 -32.78852 151.82452 473 ft 188 kts 311°
2026-04-25 11:05 -32.77993 151.81256 1455 ft 198 kts 313°
2026-04-25 11:05 -32.77066 151.79956 2160 ft 218 kts 314°
2026-04-25 11:05 -32.76064 151.78571 3036 ft 228 kts 313°
2026-04-25 11:06 -32.75000 151.77090 3748 ft 249 kts 313°
2026-04-25 11:06 -32.73842 151.75468 4433 ft 271 kts 312°
2026-04-25 11:06 -32.72595 151.73737 5363 ft 282 kts 312°
2026-04-25 11:06 -32.71336 151.71962 6417 ft 286 kts 311°
2026-04-25 11:07 -32.70037 151.70161 7423 ft 290 kts 316°
2026-04-25 11:07 -32.68404 151.68852 7893 ft 284 kts 342°
2026-04-25 11:07 -32.66495 151.68574 7903 ft 279 kts 12°
2026-04-25 11:07 -32.64730 151.69391 7928 ft 272 kts 37°
2026-04-25 11:08 -32.63295 151.70877 7894 ft 271 kts 44°
2026-04-25 11:08 -32.61829 151.72275 7896 ft 270 kts 39°
2026-04-25 11:08 -32.60299 151.73579 7969 ft 272 kts 37°
2026-04-25 11:08 -32.58736 151.74843 7958 ft 272 kts 37°
2026-04-25 11:09 -32.57173 151.76123 7919 ft 272 kts 38°
2026-04-25 11:09 -32.55618 151.77385 7851 ft 273 kts 36°
2026-04-25 11:09 -32.53950 151.78648 8383 ft 292 kts 35°
2026-04-25 11:09 -32.52249 151.79953 9414 ft 293 kts 36°
2026-04-25 11:10 -32.50588 151.81242 10467 ft 292 kts 36°
2026-04-25 11:10 -32.49458 151.82108 11125 ft 292 kts 36°
2026-04-25 11:10 -32.47160 151.83864 11880 ft 301 kts 36°
2026-04-25 11:10 -32.45396 151.85216 12216 ft 304 kts 36°
2026-04-25 11:11 -32.43589 151.86592 12331 ft 309 kts 33°
2026-04-25 11:11 -32.41555 151.87523 12438 ft 326 kts 19°
2026-04-25 11:11 -32.39360 151.88307 13204 ft 334 kts 19°
2026-04-25 11:11 -32.37164 151.89088 14258 ft 332 kts 19°
2026-04-25 11:12 -32.34985 151.89864 15320 ft 330 kts 19°
2026-04-25 11:12 -32.32767 151.90651 16265 ft 332 kts 19°
2026-04-25 11:12 -32.30572 151.91432 17077 ft 336 kts 19°
2026-04-25 11:12 -32.28309 151.92235 17863 ft 341 kts 19°
2026-04-25 11:13 -32.26029 151.93043 18614 ft 346 kts 19°
2026-04-25 11:13 -32.23728 151.93858 19324 ft 352 kts 19°
2026-04-25 11:13 -32.21379 151.94691 20036 ft 356 kts 20°
2026-04-25 11:13 -32.18994 151.95535 20714 ft 361 kts 20°
2026-04-25 11:14 -32.16565 151.96394 21391 ft 365 kts 20°
2026-04-25 11:14 -32.14111 151.97263 22056 ft 369 kts 20°
2026-04-25 11:14 -32.11636 151.98138 22701 ft 373 kts 20°
2026-04-25 11:14 -32.09145 151.99017 23330 ft 377 kts 20°
2026-04-25 11:15 -32.06639 151.99902 23946 ft 381 kts 20°
2026-04-25 11:15 -32.04108 152.00884 24503 ft 383 kts 25°
2026-04-25 11:15 -32.01633 152.02039 25042 ft 388 kts 25°
2026-04-25 11:15 -31.99118 152.03203 25563 ft 393 kts 25°
2026-04-25 11:16 -31.93920 152.05597 26576 ft 404 kts 25°
2026-04-25 11:16 -31.91298 152.06802 27064 ft 409 kts 25°
2026-04-25 11:16 -31.88651 152.08019 27548 ft 414 kts 25°
2026-04-25 11:17 -31.85963 152.09253 28043 ft 417 kts 25°
2026-04-25 11:17 -31.83235 152.10504 28536 ft 421 kts 25°
2026-04-25 11:17 -31.80483 152.11766 28978 ft 426 kts 25°
2026-04-25 11:17 -31.77741 152.13023 29415 ft 430 kts 25°
2026-04-25 11:18 -31.74911 152.14320 29839 ft 434 kts 25°
2026-04-25 11:18 -31.72092 152.15610 30284 ft 437 kts 25°
2026-04-25 11:18 -31.69277 152.16898 30745 ft 440 kts 25°
2026-04-25 11:18 -31.66424 152.18201 31182 ft 443 kts 25°
2026-04-25 11:19 -31.63515 152.19530 31601 ft 446 kts 25°
2026-04-25 11:19 -31.60616 152.20853 31983 ft 450 kts 25°
2026-04-25 11:19 -31.57714 152.22177 32459 ft 451 kts 25°
2026-04-25 11:19 -31.54787 152.23511 32992 ft 450 kts 25°
2026-04-25 11:20 -31.51908 152.24821 33524 ft 449 kts 25°
2026-04-25 11:20 -31.48994 152.26149 34059 ft 447 kts 25°
2026-04-25 11:20 -31.46085 152.27472 34580 ft 447 kts 25°
2026-04-25 11:20 -31.43206 152.28781 35062 ft 447 kts 25°
2026-04-25 11:21 -31.40304 152.30100 35580 ft 446 kts 25°
2026-04-25 11:21 -31.37423 152.31407 36069 ft 445 kts 25°
2026-04-25 11:21 -31.34555 152.32709 36525 ft 446 kts 24°
2026-04-25 11:21 -31.31673 152.34016 36950 ft 446 kts 24°
2026-04-25 11:22 -31.28756 152.35338 37378 ft 446 kts 24°
2026-04-25 11:22 -31.26833 152.36209 37650 ft 446 kts 24°
2026-04-25 11:22 -31.22962 152.37961 38201 ft 446 kts 24°
2026-04-25 11:22 -31.20096 152.39258 38553 ft 447 kts 23°
2026-04-25 11:23 -31.17179 152.40575 38913 ft 448 kts 23°
2026-04-25 11:23 -31.14253 152.41896 39255 ft 448 kts 23°
2026-04-25 11:23 -31.08458 152.44511 39383 ft 456 kts 23°
2026-04-25 11:24 -31.02421 152.47232 39379 ft 473 kts 23°
2026-04-25 11:24 -30.96168 152.50046 39402 ft 489 kts 23°
2026-04-25 11:25 -30.89776 152.52918 39367 ft 491 kts 23°
2026-04-25 11:25 -30.83433 152.55763 39356 ft 491 kts 23°
2026-04-25 11:26 -30.77028 152.58421 39354 ft 492 kts 18°
2026-04-25 11:26 -30.70469 152.60770 39347 ft 491 kts 19°
2026-04-25 11:27 -30.63977 152.63123 39352 ft 491 kts 19°
2026-04-25 11:27 -30.58542 152.65091 39358 ft 491 kts 18°
2026-04-25 11:28 -30.50915 152.67850 39349 ft 491 kts 18°
2026-04-25 11:28 -30.44418 152.70197 39350 ft 492 kts 18°
2026-04-25 11:29 -30.37892 152.72549 39360 ft 492 kts 18°
2026-04-25 11:29 -30.31332 152.74911 39354 ft 493 kts 18°
2026-04-25 11:30 -30.24787 152.77266 39354 ft 494 kts 18°
2026-04-25 11:30 -30.18246 152.79614 39355 ft 494 kts 18°
2026-04-25 11:31 -30.11639 152.81984 39361 ft 495 kts 18°
2026-04-25 11:31 -30.05074 152.84335 39363 ft 494 kts 18°
2026-04-25 11:32 -29.98512 152.86682 39354 ft 494 kts 18°
2026-04-25 11:32 -29.91958 152.89023 39352 ft 493 kts 18°
2026-04-25 11:33 -29.85367 152.91373 39328 ft 494 kts 18°
2026-04-25 11:33 -29.78838 152.93698 39325 ft 490 kts 18°
2026-04-25 11:34 -29.75618 152.94842 39305 ft 477 kts 18°
2026-04-25 11:34 -29.72421 152.95979 39316 ft 475 kts 18°
2026-04-25 11:34 -29.66106 152.98222 38983 ft 483 kts 18°
2026-04-25 11:35 -29.62870 152.99370 38462 ft 482 kts 18°
2026-04-25 11:35 -29.59670 153.00505 37924 ft 479 kts 18°
2026-04-25 11:35 -29.56499 153.01628 37392 ft 476 kts 19°
2026-04-25 11:35 -29.53350 153.02742 36568 ft 478 kts 19°
2026-04-25 11:36 -29.50186 153.03862 36062 ft 472 kts 19°
2026-04-25 11:36 -29.47045 153.04973 35539 ft 471 kts 19°
2026-04-25 11:36 -29.43910 153.06082 35019 ft 472 kts 19°
2026-04-25 11:36 -29.40759 153.07194 34492 ft 474 kts 20°
2026-04-25 11:37 -29.37607 153.08307 33975 ft 475 kts 20°
2026-04-25 11:37 -29.34457 153.09418 33593 ft 472 kts 20°
2026-04-25 11:37 -29.28177 153.11632 33649 ft 474 kts 20°
2026-04-25 11:38 -29.21833 153.13866 33652 ft 476 kts 20°
2026-04-25 11:38 -29.15536 153.16080 33670 ft 474 kts 19°
2026-04-25 11:39 -29.09195 153.18306 33665 ft 475 kts 20°
2026-04-25 11:39 -29.06018 153.19421 33218 ft 478 kts 20°
2026-04-25 11:39 -29.02862 153.20528 32693 ft 474 kts 20°
2026-04-25 11:40 -28.99694 153.21639 32181 ft 485 kts 20°
2026-04-25 11:40 -28.96435 153.22780 31634 ft 489 kts 19°
2026-04-25 11:40 -28.93172 153.23921 31080 ft 490 kts 19°
2026-04-25 11:40 -28.89955 153.25046 30547 ft 487 kts 19°
2026-04-25 11:41 -28.86675 153.26192 29986 ft 485 kts 19°
2026-04-25 11:41 -28.83466 153.27313 29443 ft 485 kts 19°
2026-04-25 11:41 -28.80220 153.28447 28898 ft 485 kts 19°
2026-04-25 11:41 -28.77012 153.29565 28362 ft 484 kts 19°
2026-04-25 11:42 -28.73781 153.30692 27818 ft 475 kts 19°
2026-04-25 11:42 -28.70681 153.31772 27305 ft 459 kts 19°
2026-04-25 11:42 -28.67666 153.32822 26807 ft 445 kts 19°
2026-04-25 11:42 -28.64753 153.33835 26322 ft 447 kts 19°
2026-04-25 11:43 -28.61721 153.34891 25822 ft 451 kts 19°
2026-04-25 11:43 -28.58707 153.35938 25320 ft 454 kts 19°
2026-04-25 11:43 -28.55695 153.36984 24814 ft 454 kts 19°
2026-04-25 11:43 -28.52688 153.38026 24314 ft 454 kts 19°
2026-04-25 11:44 -28.49705 153.39061 23807 ft 437 kts 19°
2026-04-25 11:44 -28.46860 153.40048 23324 ft 420 kts 19°
2026-04-25 11:44 -28.44105 153.41002 22861 ft 406 kts 19°
2026-04-25 11:44 -28.41435 153.41927 22429 ft 400 kts 19°
2026-04-25 11:45 -28.38777 153.42848 21991 ft 404 kts 19°
2026-04-25 11:45 -28.36062 153.43788 21538 ft 406 kts 19°
2026-04-25 11:45 -28.33347 153.44727 21081 ft 407 kts 19°
2026-04-25 11:45 -28.30652 153.45657 20635 ft 409 kts 19°
2026-04-25 11:46 -28.27917 153.46602 20172 ft 409 kts 19°
2026-04-25 11:46 -28.25218 153.47534 19730 ft 410 kts 19°
2026-04-25 11:46 -28.22477 153.48480 19276 ft 412 kts 20°
2026-04-25 11:46 -28.19699 153.49438 18807 ft 412 kts 19°
2026-04-25 11:47 -28.16911 153.50131 18334 ft 417 kts
2026-04-25 11:47 -28.14027 153.49811 17885 ft 414 kts 352°
2026-04-25 11:47 -28.11239 153.49236 17419 ft 398 kts 352°
2026-04-25 11:47 -28.08591 153.48686 16988 ft 383 kts 352°
2026-04-25 11:48 -28.05988 153.48148 16568 ft 369 kts 352°
2026-04-25 11:48 -28.03504 153.47633 16159 ft 357 kts 352°
2026-04-25 11:48 -28.01106 153.47136 15772 ft 346 kts 353°
2026-04-25 11:48 -27.98767 153.46652 15393 ft 335 kts 353°
2026-04-25 11:49 -27.96504 153.46184 15026 ft 326 kts 353°
2026-04-25 11:49 -27.94301 153.45729 14663 ft 321 kts 353°
2026-04-25 11:49 -27.92113 153.45277 14319 ft 323 kts 353°
2026-04-25 11:49 -27.89885 153.44817 13966 ft 325 kts 353°
2026-04-25 11:50 -27.87657 153.44357 13602 ft 326 kts 354°
2026-04-25 11:50 -27.85426 153.43896 13250 ft 327 kts 354°
2026-04-25 11:50 -27.83178 153.43433 12875 ft 328 kts 354°
2026-04-25 11:50 -27.80894 153.42963 12497 ft 343 kts 354°
2026-04-25 11:51 -27.78459 153.42462 12138 ft 366 kts 353°
2026-04-25 11:51 -27.75939 153.41940 11710 ft 370 kts 353°
2026-04-25 11:51 -27.73391 153.41415 11285 ft 370 kts 353°
2026-04-25 11:51 -27.70849 153.40891 10881 ft 369 kts 353°
2026-04-25 11:52 -27.68358 153.40378 10481 ft 369 kts 353°
2026-04-25 11:52 -27.65827 153.39857 10071 ft 369 kts 353°
2026-04-25 11:52 -27.63292 153.39327 9662 ft 369 kts 352°
2026-04-25 11:52 -27.60792 153.38770 9253 ft 356 kts 353°
2026-04-25 11:53 -27.58388 153.38234 8857 ft 349 kts 353°
2026-04-25 11:53 -27.56018 153.37706 8493 ft 341 kts 353°
2026-04-25 11:53 -27.53753 153.37203 8118 ft 328 kts 353°
2026-04-25 11:53 -27.51538 153.36710 7760 ft 316 kts 353°
2026-04-25 11:54 -27.49414 153.36238 7407 ft 305 kts 353°
2026-04-25 11:54 -27.47364 153.35782 7071 ft 295 kts 353°
2026-04-25 11:54 -27.43486 153.34921 6528 ft 276 kts 353°
2026-04-25 11:55 -27.41620 153.34508 6228 ft 269 kts 353°
2026-04-25 11:55 -27.39803 153.34103 5937 ft 262 kts 354°
2026-04-25 11:55 -27.38038 153.33713 5652 ft 256 kts 354°
2026-04-25 11:55 -27.36299 153.33327 5373 ft 251 kts 354°
2026-04-25 11:56 -27.34582 153.32982 5105 ft 249 kts 355°
2026-04-25 11:56 -27.32891 153.32660 4831 ft 250 kts 355°
2026-04-25 11:56 -27.31168 153.32332 4557 ft 250 kts 355°
2026-04-25 11:56 -27.29435 153.31999 4273 ft 250 kts 353°
2026-04-25 11:57 -27.27911 153.31137 4064 ft 249 kts 316°
2026-04-25 11:57 -27.27120 153.29459 3713 ft 244 kts 280°
2026-04-25 11:57 -27.26798 153.27609 3414 ft 237 kts 278°
2026-04-25 11:57 -27.26653 153.25813 3112 ft 226 kts 253°
2026-04-25 11:58 -27.27272 153.24297 2880 ft 209 kts 232°
2026-04-25 11:58 -27.28032 153.22899 2606 ft 205 kts 231°
2026-04-25 11:58 -27.28767 153.21568 2373 ft 198 kts 230°
2026-04-25 11:58 -27.29486 153.20281 2106 ft 194 kts 230°
2026-04-25 11:59 -27.30188 153.19025 1941 ft 180 kts 230°
2026-04-25 11:59 -27.30903 153.17932 1647 ft 168 kts 216°
2026-04-25 11:59 -27.31739 153.17070 1430 ft 157 kts 214°
2026-04-25 12:00 -27.33332 153.15816 1038 ft 132 kts 201°
2026-04-25 12:00 -27.34140 153.15350 894 ft 130 kts 202°
2026-04-25 12:00 -27.35715 153.14427 446 ft 124 kts 205°
2026-04-25 12:01 -27.36486 153.13995 270 ft 123 kts 205°
2026-04-25 12:01 -27.37247 153.13556 109 ft 120 kts 206°
2026-04-25 12:01 -27.37980 153.13136 18 ft 108 kts 207°
2026-04-25 12:01 -27.38520 153.12828 18 ft 63 kts 206°
2026-04-25 12:02 -27.39018 153.12434 21 ft 31 kts 237°
2026-04-25 12:02 -27.39122 153.12256 21 ft 21 kts 238°
2026-04-25 12:02 -27.39108 153.12158 21 ft 10 kts 329°
2026-04-25 12:03 -27.39045 153.12163 21 ft 9 kts 26°
2026-04-25 12:03 -27.38973 153.12204 21 ft 13 kts 27°
2026-04-25 12:03 -27.38881 153.12256 21 ft 14 kts 27°
2026-04-25 12:03 -27.38807 153.12264 21 ft 9 kts 330°
2026-04-25 12:04 -27.38757 153.12242 21 ft 8 kts 21°
2026-04-25 12:04 -27.38716 153.12248 21 ft 5 kts 328°
2026-04-25 12:04 -27.38686 153.12225 21 ft 3 kts 323°
2026-04-25 12:04 -27.38683 153.12222 21 ft 0 kts 322°